Location: Unspecified
(41.1637°N, 24.2901°E)
Time: 11:20:17
(UTC+02:00)

ISS - Pass Details

Date: 06 May 2026
Orbit: 414 x 424 km, 51.6° (Epoch: 12 May)

Event Time Altitude Azimuth Distance (km) Brightness Sun altitude
Exits shadow 02:32:20 - 322° (NW) 1,719 -0.5 -24.7°
Reaches altitude 10° 02:33:04 10° 329° (NNW) 1,498 -0.7 -24.6°
Maximum altitude 02:35:28 18° 15° (NNE) 1,105 -0.9 -24.3°
Drops below altitude 10° 02:37:53 10° 61° (ENE) 1,499 -0.1 -24.0°
Sets 02:40:27 0° 81° (E) 2,364 0.7 -23.8°
